Time,TemperatureF,DewpointF,PressureIn,WindDirection,WindDirectionDegrees,WindSpeedMPH,WindSpeedGustMPH,Humidity,HourlyPrecipIn,Conditions,Clouds,dailyrainin,SoftwareType,DateUTC
2013-05-06 00:02:00,57.0,40.0,30.24,SE,124,3.0,7.0,53,0.00,,,0.00,,2013-05-06 04:02:00,
2013-05-06 00:12:00,57.0,40.0,30.24,SE,124,3.0,7.0,53,0.00,,,0.00,,2013-05-06 04:12:00,
2013-05-06 00:23:00,56.0,39.0,30.24,SE,144,2.0,3.0,53,0.00,,,0.00,,2013-05-06 04:23:00,
2013-05-06 00:32:00,56.0,40.0,30.24,ESE,121,2.0,5.0,54,0.00,,,0.00,,2013-05-06 04:32:00,
2013-05-06 00:43:00,56.0,40.0,30.24,ESE,121,2.0,5.0,54,0.00,,,0.00,,2013-05-06 04:43:00,
2013-05-06 00:53:00,55.0,40.0,30.24,SE,134,2.0,3.0,56,0.00,,,0.00,,2013-05-06 04:53:00,
2013-05-06 01:02:00,55.0,40.0,30.24,NE,40,1.0,3.0,57,0.00,,,0.00,,2013-05-06 05:02:00,
2013-05-06 01:12:00,55.0,40.0,30.24,NE,40,1.0,3.0,57,0.00,,,0.00,,2013-05-06 05:12:00,
2013-05-06 01:22:00,54.0,40.0,30.24,East,85,0.0,1.0,59,0.00,,,0.00,,2013-05-06 05:22:00,
2013-05-06 01:32:00,54.0,40.0,30.24,SSE,160,0.0,0.0,59,0.00,,,0.00,,2013-05-06 05:32:00,
2013-05-06 01:42:00,54.0,40.0,30.24,SSE,160,0.0,0.0,59,0.00,,,0.00,,2013-05-06 05:42:00,
2013-05-06 01:52:00,53.0,39.0,30.24,SW,217,0.0,1.0,59,0.00,,,0.00,,2013-05-06 05:52:00,
2013-05-06 02:02:00,53.0,39.0,30.23,SSW,195,0.0,1.0,60,0.00,,,0.00,,2013-05-06 06:02:00,
2013-05-06 02:12:00,53.0,39.0,30.23,SSW,195,0.0,1.0,60,0.00,,,0.00,,2013-05-06 06:12:00,
2013-05-06 02:21:00,52.0,39.0,30.23,SE,137,0.0,1.0,61,0.00,,,0.00,,2013-05-06 06:21:00,
2013-05-06 02:32:00,52.0,39.0,30.23,ENE,78,0.0,0.0,62,0.00,,,0.00,,2013-05-06 06:32:00,
2013-05-06 02:42:00,52.0,39.0,30.23,ENE,78,0.0,0.0,62,0.00,,,0.00,,2013-05-06 06:42:00,
2013-05-06 02:52:00,51.0,39.0,30.22,East,88,0.0,1.0,63,0.00,,,0.00,,2013-05-06 06:52:00,
2013-05-06 03:01:00,51.0,39.0,30.22,SW,223,0.0,1.0,64,0.00,,,0.00,,2013-05-06 07:01:00,
2013-05-06 03:11:00,51.0,39.0,30.22,SW,223,0.0,1.0,64,0.00,,,0.00,,2013-05-06 07:11:00,
2013-05-06 03:22:00,50.0,39.0,30.23,SE,135,1.0,2.0,66,0.00,,,0.00,,2013-05-06 07:22:00,
2013-05-06 03:32:00,50.0,39.0,30.23,ESE,123,2.0,2.0,66,0.00,,,0.00,,2013-05-06 07:32:00,
2013-05-06 03:42:00,50.0,39.0,30.23,ESE,123,2.0,2.0,66,0.00,,,0.00,,2013-05-06 07:42:00,
2013-05-06 03:52:00,50.0,39.0,30.22,ESE,121,0.0,2.0,65,0.00,,,0.00,,2013-05-06 07:52:00,
2013-05-06 04:02:00,49.0,38.0,30.22,ESE,112,0.0,0.0,65,0.00,,,0.00,,2013-05-06 08:02:00,
2013-05-06 04:12:00,49.0,38.0,30.22,ESE,112,0.0,0.0,65,0.00,,,0.00,,2013-05-06 08:12:00,
2013-05-06 04:22:00,49.0,38.0,30.22,East,101,1.0,2.0,66,0.00,,,0.00,,2013-05-06 08:22:00,
2013-05-06 04:32:00,49.0,39.0,30.22,ENE,68,1.0,1.0,67,0.00,,,0.00,,2013-05-06 08:32:00,
2013-05-06 04:42:00,49.0,39.0,30.22,ENE,68,1.0,1.0,67,0.00,,,0.00,,2013-05-06 08:42:00,
2013-05-06 04:52:00,48.0,38.0,30.22,SE,135,0.0,2.0,67,0.00,,,0.00,,2013-05-06 08:52:00,
2013-05-06 05:01:00,48.0,38.0,30.22,SSW,210,0.0,1.0,68,0.00,,,0.00,,2013-05-06 09:01:00,
2013-05-06 05:11:00,48.0,38.0,30.22,SSW,210,0.0,1.0,68,0.00,,,0.00,,2013-05-06 09:11:00,
2013-05-06 05:22:00,47.0,38.0,30.22,SE,125,2.0,5.0,70,0.00,,,0.00,,2013-05-06 09:22:00,
2013-05-06 05:33:00,47.0,38.0,30.22,ESE,107,2.0,3.0,70,0.00,,,0.00,,2013-05-06 09:33:00,
2013-05-06 05:43:00,47.0,38.0,30.22,ESE,107,2.0,3.0,70,0.00,,,0.00,,2013-05-06 09:43:00,
2013-05-06 05:53:00,46.0,37.0,30.22,SE,144,2.0,5.0,72,0.00,,,0.00,,2013-05-06 09:53:00,
2013-05-06 06:02:00,46.0,37.0,30.22,SE,135,1.0,2.0,71,0.00,,,0.00,,2013-05-06 10:02:00,
2013-05-06 06:12:00,46.0,37.0,30.22,SE,135,1.0,2.0,71,0.00,,,0.00,,2013-05-06 10:12:00,
2013-05-06 06:22:00,46.0,37.0,30.22,SE,135,1.0,2.0,72,0.00,,,0.00,,2013-05-06 10:22:00,
2013-05-06 06:33:00,46.0,37.0,30.23,ESE,112,0.0,2.0,72,0.00,,,0.00,,2013-05-06 10:33:00,
2013-05-06 06:42:00,46.0,37.0,30.23,ESE,112,0.0,2.0,72,0.00,,,0.00,,2013-05-06 10:42:00,
2013-05-06 06:52:00,46.0,38.0,30.24,ESE,112,0.0,2.0,73,0.00,,,0.00,,2013-05-06 10:52:00,
2013-05-06 07:02:00,46.0,38.0,30.24,SE,135,1.0,2.0,74,0.00,,,0.00,,2013-05-06 11:02:00,
2013-05-06 07:12:00,46.0,38.0,30.24,SE,135,1.0,2.0,74,0.00,,,0.00,,2013-05-06 11:12:00,
2013-05-06 07:22:00,46.0,39.0,30.24,SSE,158,2.0,3.0,75,0.00,,,0.00,,2013-05-06 11:22:00,
2013-05-06 07:32:00,46.0,39.0,30.25,ESE,121,2.0,3.0,75,0.00,,,0.00,,2013-05-06 11:32:00,
2013-05-06 07:42:00,46.0,39.0,30.25,ESE,121,2.0,3.0,75,0.00,,,0.00,,2013-05-06 11:42:00,
2013-05-06 07:52:00,47.0,40.0,30.24,SE,141,3.0,6.0,77,0.00,,,0.00,,2013-05-06 11:52:00,
2013-05-06 08:01:00,47.0,40.0,30.24,SSE,148,3.0,7.0,76,0.00,,,0.00,,2013-05-06 12:01:00,
2013-05-06 08:12:00,47.0,40.0,30.24,SSE,148,3.0,7.0,76,0.00,,,0.00,,2013-05-06 12:12:00,
2013-05-06 08:21:00,48.0,40.0,30.25,SE,124,5.0,8.0,75,0.00,,,0.00,,2013-05-06 12:21:00,
2013-05-06 08:32:00,49.0,41.0,30.25,SE,125,5.0,7.0,74,0.00,,,0.00,,2013-05-06 12:32:00,
2013-05-06 08:42:00,49.0,41.0,30.25,SE,125,5.0,7.0,74,0.00,,,0.00,,2013-05-06 12:42:00,
2013-05-06 08:52:00,49.0,41.0,30.25,NE,52,3.0,6.0,74,0.00,,,0.00,,2013-05-06 12:52:00,
2013-05-06 09:01:00,50.0,42.0,30.25,East,92,3.0,6.0,74,0.00,,,0.00,,2013-05-06 13:01:00,
2013-05-06 09:11:00,50.0,42.0,30.25,East,92,3.0,6.0,74,0.00,,,0.00,,2013-05-06 13:11:00,
2013-05-06 09:21:00,51.0,43.0,30.25,SE,127,3.0,7.0,73,0.00,,,0.00,,2013-05-06 13:21:00,
2013-05-06 09:32:00,51.0,43.0,30.26,NE,52,3.0,6.0,73,0.00,,,0.00,,2013-05-06 13:32:00,
2013-05-06 09:42:00,51.0,43.0,30.26,NE,52,3.0,6.0,73,0.00,,,0.00,,2013-05-06 13:42:00,
2013-05-06 09:52:00,52.0,43.0,30.26,East,100,2.0,6.0,71,0.00,,,0.00,,2013-05-06 13:52:00,
2013-05-06 10:01:00,53.0,44.0,30.26,ESE,123,3.0,7.0,72,0.00,,,0.00,,2013-05-06 14:01:00,
2013-05-06 10:11:00,53.0,44.0,30.26,ESE,123,3.0,7.0,72,0.00,,,0.00,,2013-05-06 14:11:00,
2013-05-06 10:21:00,54.0,44.0,30.25,SE,135,3.0,7.0,69,0.00,,,0.00,,2013-05-06 14:21:00,
2013-05-06 10:32:00,55.0,44.0,30.25,ENE,61,2.0,6.0,66,0.00,,,0.00,,2013-05-06 14:32:00,
2013-05-06 10:42:00,55.0,44.0,30.25,ENE,61,2.0,6.0,66,0.00,,,0.00,,2013-05-06 14:42:00,
2013-05-06 10:52:00,56.0,44.0,30.26,East,99,3.0,7.0,64,0.00,,,0.00,,2013-05-06 14:52:00,
2013-05-06 11:01:00,57.0,45.0,30.26,SW,214,3.0,9.0,63,0.00,,,0.00,,2013-05-06 15:01:00,
2013-05-06 11:11:00,57.0,45.0,30.26,SW,214,3.0,9.0,63,0.00,,,0.00,,2013-05-06 15:11:00,
2013-05-06 11:21:00,58.0,44.0,30.25,SE,132,3.0,7.0,60,0.00,,,0.00,,2013-05-06 15:21:00,
2013-05-06 11:33:00,59.0,44.0,30.25,East,90,3.0,7.0,58,0.00,,,0.00,,2013-05-06 15:33:00,
2013-05-06 11:42:00,59.0,44.0,30.25,East,90,3.0,7.0,58,0.00,,,0.00,,2013-05-06 15:42:00,
2013-05-06 11:53:00,61.0,45.0,30.25,ESE,122,2.0,8.0,56,0.00,,,0.00,,2013-05-06 15:53:00,
2013-05-06 12:03:00,62.0,46.0,30.25,ENE,60,3.0,7.0,55,0.00,,,0.00,,2013-05-06 16:03:00,
2013-05-06 12:13:00,62.0,46.0,30.25,ENE,60,3.0,7.0,55,0.00,,,0.00,,2013-05-06 16:13:00,
2013-05-06 12:23:00,63.0,46.0,30.25,ESE,111,2.0,7.0,54,0.00,,,0.00,,2013-05-06 16:23:00,
2013-05-06 12:33:00,64.0,47.0,30.25,SE,135,3.0,8.0,55,0.00,,,0.00,,2013-05-06 16:33:00,
2013-05-06 12:42:00,64.0,47.0,30.25,SE,135,3.0,8.0,55,0.00,,,0.00,,2013-05-06 16:42:00,
2013-05-06 12:52:00,66.0,48.0,30.28,SSW,202,3.0,6.0,53,0.00,,,0.00,,2013-05-06 16:52:00,
2013-05-06 13:03:00,67.0,50.0,30.26,East,81,2.0,2.0,54,0.00,,,0.00,,2013-05-06 17:03:00,
2013-05-06 13:12:00,67.0,50.0,30.26,East,81,2.0,2.0,54,0.00,,,0.00,,2013-05-06 17:12:00,
2013-05-06 13:23:00,68.0,51.0,30.23,ENE,68,3.0,7.0,54,0.00,,,0.00,,2013-05-06 17:23:00,
2013-05-06 13:31:00,69.0,51.0,30.22,ENE,68,3.0,6.0,52,0.00,,,0.00,,2013-05-06 17:31:00,
2013-05-06 13:42:00,69.0,51.0,30.22,ENE,68,3.0,6.0,52,0.00,,,0.00,,2013-05-06 17:42:00,
2013-05-06 13:52:00,70.0,52.0,30.22,SSE,166,1.0,7.0,52,0.00,,,0.00,,2013-05-06 17:52:00,
2013-05-06 14:01:00,72.0,54.0,30.22,ESE,122,3.0,7.0,53,0.00,,,0.00,,2013-05-06 18:01:00,
2013-05-06 14:12:00,72.0,54.0,30.22,ESE,122,3.0,7.0,53,0.00,,,0.00,,2013-05-06 18:12:00,
2013-05-06 14:22:00,73.0,52.0,30.22,East,93,3.0,6.0,48,0.00,,,0.00,,2013-05-06 18:22:00,
2013-05-06 14:32:00,74.0,54.0,30.22,NNE,19,3.0,5.0,49,0.00,,,0.00,,2013-05-06 18:32:00,
2013-05-06 14:43:00,74.0,54.0,30.22,NNE,19,3.0,5.0,49,0.00,,,0.00,,2013-05-06 18:43:00,
2013-05-06 14:52:00,75.0,53.0,30.23,SE,142,2.0,6.0,46,0.00,,,0.00,,2013-05-06 18:52:00,
2013-05-06 15:01:00,76.0,55.0,30.24,SE,133,3.0,9.0,48,0.00,,,0.00,,2013-05-06 19:01:00,
2013-05-06 15:11:00,76.0,55.0,30.24,SE,133,3.0,9.0,48,0.00,,,0.00,,2013-05-06 19:11:00,
2013-05-06 15:22:00,77.0,55.0,30.24,WSW,239,3.0,13.0,46,0.00,,,0.00,,2013-05-06 19:22:00,
2013-05-06 15:32:00,78.0,56.0,30.24,SSE,148,3.0,7.0,46,0.00,,,0.00,,2013-05-06 19:32:00,
2013-05-06 15:41:00,78.0,56.0,30.24,SSE,148,3.0,7.0,46,0.00,,,0.00,,2013-05-06 19:41:00,
2013-05-06 15:52:00,76.0,53.0,30.20,South,171,2.0,6.0,45,0.00,,,0.00,,2013-05-06 19:52:00,
2013-05-06 16:02:00,75.0,53.0,30.18,SE,135,2.0,6.0,46,0.00,,,0.00,,2013-05-06 20:02:00,
2013-05-06 16:11:00,75.0,53.0,30.18,SE,135,2.0,6.0,46,0.00,,,0.00,,2013-05-06 20:11:00,
2013-05-06 16:21:00,73.0,52.0,30.15,South,188,2.0,5.0,48,0.00,,,0.00,,2013-05-06 20:21:00,
2013-05-06 16:32:00,73.0,53.0,30.14,SSW,201,2.0,3.0,49,0.00,,,0.00,,2013-05-06 20:32:00,
2013-05-06 16:42:00,73.0,53.0,30.14,SSW,201,2.0,3.0,49,0.00,,,0.00,,2013-05-06 20:42:00,
2013-05-06 16:52:00,73.0,54.0,30.14,SSE,168,3.0,8.0,51,0.00,,,0.00,,2013-05-06 20:52:00,
2013-05-06 17:01:00,72.0,53.0,30.14,SSE,161,3.0,7.0,51,0.00,,,0.00,,2013-05-06 21:01:00,
2013-05-06 17:11:00,72.0,53.0,30.14,SSE,161,3.0,7.0,51,0.00,,,0.00,,2013-05-06 21:11:00,
2013-05-06 17:21:00,74.0,54.0,30.16,SE,135,3.0,10.0,50,0.00,,,0.00,,2013-05-06 21:21:00,
2013-05-06 17:33:00,75.0,55.0,30.19,SSE,152,5.0,7.0,50,0.00,,,0.00,,2013-05-06 21:33:00,
2013-05-06 17:43:00,75.0,55.0,30.19,SSE,152,5.0,7.0,50,0.00,,,0.00,,2013-05-06 21:43:00,
2013-05-06 17:53:00,75.0,55.0,30.21,WSW,250,3.0,7.0,49,0.00,,,0.00,,2013-05-06 21:53:00,
2013-05-06 18:03:00,74.0,54.0,30.19,SW,228,3.0,5.0,50,0.00,,,0.00,,2013-05-06 22:03:00,
2013-05-06 18:12:00,74.0,54.0,30.19,SW,228,3.0,5.0,50,0.00,,,0.00,,2013-05-06 22:12:00,
2013-05-06 18:22:00,71.0,52.0,30.16,ESE,122,3.0,6.0,52,0.00,,,0.00,,2013-05-06 22:22:00,
2013-05-06 18:33:00,72.0,54.0,30.14,East,80,2.0,3.0,53,0.00,,,0.00,,2013-05-06 22:33:00,
2013-05-06 18:45:00,72.0,54.0,30.14,East,80,2.0,3.0,53,0.00,,,0.00,,2013-05-06 22:45:00,
2013-05-06 18:52:00,71.0,53.0,30.17,SE,135,5.0,7.0,53,0.00,,,0.00,,2013-05-06 22:52:00,
2013-05-06 19:03:00,70.0,53.0,30.16,SSE,147,3.0,7.0,54,0.00,,,0.00,,2013-05-06 23:03:00,
2013-05-06 19:12:00,70.0,53.0,30.16,SSE,147,3.0,7.0,54,0.00,,,0.00,,2013-05-06 23:12:00,
2013-05-06 19:22:00,69.0,52.0,30.15,SSW,197,3.0,7.0,55,0.00,,,0.00,,2013-05-06 23:22:00,
2013-05-06 19:32:00,69.0,53.0,30.15,SE,146,3.0,5.0,56,0.00,,,0.00,,2013-05-06 23:32:00,
2013-05-06 19:42:00,69.0,53.0,30.15,SE,146,3.0,5.0,56,0.00,,,0.00,,2013-05-06 23:42:00,
2013-05-06 19:52:00,68.0,52.0,30.15,NW,315,2.0,7.0,57,0.00,,,0.00,,2013-05-06 23:52:00,
2013-05-06 20:01:00,68.0,53.0,30.15,SE,146,2.0,7.0,58,0.00,,,0.00,,2013-05-07 00:01:00,
2013-05-06 20:11:00,68.0,53.0,30.15,SE,146,2.0,7.0,58,0.00,,,0.00,,2013-05-07 00:11:00,
2013-05-06 20:21:00,67.0,53.0,30.16,SE,145,3.0,7.0,60,0.00,,,0.00,,2013-05-07 00:21:00,
2013-05-06 20:32:00,66.0,52.0,30.16,SE,145,2.0,5.0,60,0.00,,,0.00,,2013-05-07 00:32:00,
2013-05-06 20:42:00,66.0,52.0,30.16,SE,145,2.0,5.0,60,0.00,,,0.00,,2013-05-07 00:42:00,
2013-05-06 20:52:00,66.0,52.0,30.16,SSE,167,1.0,5.0,61,0.00,,,0.00,,2013-05-07 00:52:00,
2013-05-06 21:01:00,65.0,52.0,30.16,SE,140,1.0,2.0,62,0.00,,,0.00,,2013-05-07 01:01:00,
2013-05-06 21:11:00,65.0,52.0,30.16,SE,140,1.0,2.0,62,0.00,,,0.00,,2013-05-07 01:11:00,
2013-05-06 21:21:00,64.0,52.0,30.17,SE,135,2.0,2.0,64,0.00,,,0.00,,2013-05-07 01:21:00,
2013-05-06 21:32:00,65.0,53.0,30.17,ESE,116,2.0,3.0,65,0.00,,,0.00,,2013-05-07 01:32:00,
2013-05-06 21:42:00,65.0,53.0,30.17,ESE,116,2.0,3.0,65,0.00,,,0.00,,2013-05-07 01:42:00,
2013-05-06 21:53:00,64.0,52.0,30.17,SE,135,2.0,2.0,65,0.00,,,0.00,,2013-05-07 01:53:00,
2013-05-06 22:02:00,64.0,52.0,30.17,South,171,1.0,2.0,66,0.00,,,0.00,,2013-05-07 02:02:00,
2013-05-06 22:11:00,64.0,52.0,30.17,South,171,1.0,2.0,66,0.00,,,0.00,,2013-05-07 02:11:00,
2013-05-06 22:22:00,64.0,53.0,30.18,SSE,158,2.0,3.0,67,0.00,,,0.00,,2013-05-07 02:22:00,
2013-05-06 22:32:00,64.0,53.0,30.18,SSW,205,2.0,5.0,68,0.00,,,0.00,,2013-05-07 02:32:00,
2013-05-06 22:42:00,64.0,53.0,30.18,SSW,205,2.0,5.0,68,0.00,,,0.00,,2013-05-07 02:42:00,
2013-05-06 22:52:00,63.0,52.0,30.18,SSE,158,1.0,2.0,68,0.00,,,0.00,,2013-05-07 02:52:00,
2013-05-06 23:02:00,63.0,52.0,30.18,SE,125,0.0,1.0,68,0.00,,,0.00,,2013-05-07 03:02:00,
2013-05-06 23:11:00,63.0,52.0,30.18,SE,125,0.0,1.0,68,0.00,,,0.00,,2013-05-07 03:11:00,
2013-05-06 23:22:00,63.0,53.0,30.17,SE,135,1.0,2.0,69,0.00,,,0.00,,2013-05-07 03:22:00,
2013-05-06 23:32:00,62.0,51.0,30.18,SSE,149,1.0,2.0,68,0.00,,,0.00,,2013-05-07 03:32:00,
2013-05-06 23:43:00,62.0,51.0,30.18,SSE,149,1.0,2.0,68,0.00,,,0.00,,2013-05-07 03:43:00,
2013-05-06 23:53:00,62.0,52.0,30.17,SE,135,2.0,3.0,69,0.00,,,0.00,,2013-05-07 03:53:00,